| time (UTC) | temp F | wind direction | speed MPH | gust MPH | rain 1hr in | rain 24hr in | rain mn in | humidity % | barometer mb |
| 20260906213106 | 85 | 71 | 10.0 | 19.0 | 0.00 | 0.06 | 0.00 | 40 | 1018.4 |
| 20260906211603 | 84 | 63 | 9.0 | 15.0 | 0.00 | 0.06 | 0.00 | 39 | 1018.7 |
| 20260906210109 | 84 | 25 | 10.0 | 19.0 | 0.00 | 0.06 | 0.00 | 37 | 1018.9 |
| 20260906204552 | 85 | 22 | 13.0 | 20.0 | 0.00 | 0.06 | 0.00 | 38 | 1019.0 |
| 20260906203103 | 83 | 90 | 11.0 | 18.0 | 0.00 | 0.06 | 0.00 | 40 | 1019.3 |
| 20260906201634 | 84 | 78 | 12.0 | 17.0 | 0.00 | 0.06 | 0.00 | 40 | 1019.4 |
| 20260906200051 | 84 | 37 | 12.0 | 16.0 | 0.00 | 0.06 | 0.00 | 40 | 1019.4 |
| 20260906194605 | 83 | 53 | 6.0 | 16.0 | 0.00 | 0.06 | 0.00 | 41 | 1019.7 |
| 20260906193055 | 83 | 24 | 5.0 | 16.0 | 0.00 | 0.06 | 0.00 | 43 | 1019.7 |
| 20260906191606 | 82 | 76 | 6.0 | 17.0 | 0.00 | 0.06 | 0.00 | 43 | 1019.9 |
| 20260906190050 | 82 | 57 | 10.0 | 13.0 | 0.00 | 0.06 | 0.00 | 44 | 1020.2 |
| 20260906184601 | 80 | 313 | 8.0 | 14.0 | 0.00 | 0.06 | 0.00 | 44 | 1020.5 |
| 20260906183100 | 80 | 35 | 3.0 | 10.0 | 0.00 | 0.06 | 0.00 | 45 | 1021.0 |
| 20260906181621 | 79 | 10 | 5.0 | 9.0 | 0.00 | 0.06 | 0.00 | 44 | 1021.4 |
| 20260906180107 | 79 | 37 | 1.0 | 7.0 | 0.00 | 0.06 | 0.00 | 47 | 1021.6 |
| 20260906174555 | 78 | 51 | 4.0 | 5.0 | 0.00 | 0.06 | 0.00 | 47 | 1021.9 |
| 20260906173053 | 77 | 275 | 2.0 | 6.0 | 0.00 | 0.06 | 0.00 | 51 | 1021.9 |
| 20260906171603 | 76 | 259 | 3.0 | 6.0 | 0.00 | 0.06 | 0.00 | 51 | 1022.1 |
| 20260906164557 | 73 | 178 | 3.0 | 7.0 | 0.00 | 0.06 | 0.00 | 57 | 1022.3 |
| 20260906163101 | 72 | 252 | 3.0 | 7.0 | 0.00 | 0.06 | 0.00 | 59 | 1022.4 |
| 20260906161556 | 71 | 297 | 2.0 | 7.0 | 0.00 | 0.06 | 0.00 | 63 | 1022.4 |
| 20260906160100 | 70 | 249 | 3.0 | 8.0 | 0.00 | 0.06 | 0.00 | 66 | 1022.3 |
| 20260906154554 | 69 | 249 | 4.0 | 8.0 | 0.00 | 0.06 | 0.00 | 69 | 1022.3 |
| 20260906153053 | 69 | 232 | 4.0 | 8.0 | 0.00 | 0.06 | 0.00 | 71 | 1022.4 |
| 20260906151550 | 67 | 227 | 6.0 | 10.0 | 0.00 | 0.06 | 0.00 | 74 | 1022.3 |
| 20260906150100 | 67 | 242 | 5.0 | 9.0 | 0.00 | 0.06 | 0.00 | 75 | 1022.3 |
| 20260906144554 | 66 | 232 | 4.0 | 10.0 | 0.00 | 0.06 | 0.00 | 78 | 1022.2 |
| 20260906143055 | 64 | 226 | 7.0 | 12.0 | 0.00 | 0.06 | 0.00 | 78 | 1022.1 |
| 20260906141550 | 64 | 234 | 6.0 | 10.0 | 0.00 | 0.06 | 0.00 | 78 | 1022.3 |
| 20260906140106 | 62 | 246 | 6.0 | 10.0 | 0.00 | 0.06 | 0.00 | 75 | 1022.3 |
| 20260906134604 | 62 | 217 | 6.0 | 11.0 | 0.00 | 0.06 | 0.00 | 75 | 1021.8 |
| 20260906133101 | 62 | 218 | 6.0 | 9.0 | 0.00 | 0.06 | 0.00 | 74 | 1021.7 |
| 20260906131551 | 61 | 209 | 7.0 | 9.0 | 0.00 | 0.06 | 0.00 | 73 | 1021.5 |
| 20260906130108 | 60 | 203 | 6.0 | 8.0 | 0.00 | 0.06 | 0.00 | 74 | 1021.5 |
| 20260906124602 | 60 | 213 | 5.0 | 7.0 | 0.00 | 0.06 | 0.00 | 75 | 1021.6 |
| 20260906123058 | 60 | 217 | 5.0 | 8.0 | 0.00 | 0.06 | 0.00 | 73 | 1021.4 |
| 20260906121606 | 61 | 209 | 4.0 | 6.0 | 0.00 | 0.06 | 0.00 | 71 | 1021.4 |
| 20260906120055 | 62 | 214 | 6.0 | 10.0 | 0.00 | 0.06 | 0.00 | 68 | 1021.2 |
| 20260906114614 | 62 | 213 | 6.0 | 7.0 | 0.00 | 0.06 | 0.00 | 69 | 1021.2 |
| 20260906113110 | 62 | 213 | 1.0 | 4.0 | 0.00 | 0.06 | 0.00 | 68 | 1021.2 |
| 20260906111555 | 62 | 215 | 3.0 | 6.0 | 0.00 | 0.06 | 0.00 | 67 | 1021.3 |
| 20260906110053 | 63 | 217 | 6.0 | 6.0 | 0.00 | 0.06 | 0.00 | 65 | 1021.3 |
| 20260906104601 | 63 | 205 | 4.0 | 4.0 | 0.00 | 0.06 | 0.00 | 63 | 1021.3 |
| 20260906103055 | 63 | 0 | 0.0 | 5.0 | 0.00 | 0.06 | 0.00 | 64 | 1021.3 |
| 20260906101554 | 64 | 196 | 1.0 | 2.0 | 0.00 | 0.06 | 0.00 | 62 | 1021.4 |
| 20260906100051 | 65 | 196 | 1.0 | 4.0 | 0.00 | 0.06 | 0.00 | 61 | 1021.2 |
| 20260906094558 | 65 | 213 | 2.0 | 4.0 | 0.00 | 0.06 | 0.00 | 60 | 1021.1 |
| 20260906093056 | 65 | 209 | 3.0 | 5.0 | 0.00 | 0.06 | 0.00 | 60 | 1021.2 |
| 20260906091553 | 64 | 207 | 4.0 | 5.0 | 0.00 | 0.06 | 0.00 | 63 | 1021.1 |
| 20260906090109 | 66 | 238 | 2.0 | 4.0 | 0.00 | 0.06 | 0.00 | 60 | 1020.9 |
| 20260906084554 | 67 | 186 | 2.0 | 2.0 | 0.00 | 0.06 | 0.00 | 59 | 1021.1 |
| 20260906083055 | 66 | 157 | 1.0 | 2.0 | 0.00 | 0.06 | 0.00 | 59 | 1021.2 |
| 20260906081556 | 66 | 0 | 0.0 | 2.0 | 0.00 | 0.06 | 0.00 | 60 | 1021.4 |
| 20260906080051 | 66 | 150 | 1.0 | 3.0 | 0.00 | 0.06 | 0.00 | 63 | 1021.6 |
| 20260906074558 | 67 | 101 | 2.0 | 4.0 | 0.00 | 0.06 | 0.00 | 60 | 1021.2 |
| 20260906073055 | 68 | 161 | 2.0 | 6.0 | 0.00 | 0.06 | 0.00 | 57 | 1021.0 |
| 20260906071556 | 68 | 196 | 0.0 | 3.0 | 0.00 | 0.06 | 0.00 | 58 | 1020.8 |
| 20260906070106 | 68 | 0 | 2.0 | 8.0 | 0.00 | 0.06 | 0.00 | 57 | 1020.8 |
| 20260906064557 | 69 | 199 | 3.0 | 8.0 | 0.00 | 0.06 | 0.00 | 58 | 1020.6 |
| 20260906063055 | 68 | 214 | 3.0 | 6.0 | 0.00 | 0.06 | 0.00 | 58 | 1020.6 |
| 20260906061555 | 69 | 246 | 7.0 | 12.0 | 0.00 | 0.06 | 0.00 | 57 | 1020.8 |
| 20260906060155 | 70 | 227 | 6.0 | 13.0 | 0.05 | 0.06 | 0.00 | 55 | 1021.1 |
| 20260906054604 | 68 | 232 | 3.0 | 6.0 | 0.06 | 0.06 | 0.06 | 61 | 1021.2 |
| 20260906053054 | 69 | 206 | 4.0 | 7.0 | 0.06 | 0.06 | 0.06 | 63 | 1021.1 |
| 20260906051553 | 70 | 242 | 8.0 | 11.0 | 0.06 | 0.06 | 0.06 | 54 | 1020.9 |
| 20260906050115 | 73 | 229 | 4.0 | 5.0 | 0.00 | 0.00 | 0.00 | 47 | 1021.3 |
| 20260906044555 | 74 | 226 | 4.0 | 6.0 | 0.00 | 0.00 | 0.00 | 43 | 1021.3 |
| 20260906043112 | 73 | 234 | 4.0 | 5.0 | 0.00 | 0.00 | 0.00 | 43 | 1021.4 |
| 20260906041552 | 74 | 244 | 2.0 | 5.0 | 0.00 | 0.00 | 0.00 | 40 | 1021.3 |
| 20260906034559 | 77 | 302 | 2.0 | 8.0 | 0.00 | 0.00 | 0.00 | 36 | 1021.6 |
| 20260906033053 | 77 | 11 | 7.0 | 12.0 | 0.00 | 0.00 | 0.00 | 35 | 1021.5 |
| 20260906031611 | 75 | 61 | 8.0 | 12.0 | 0.00 | 0.00 | 0.00 | 39 | 1021.2 |
| 20260906030059 | 76 | 244 | 1.0 | 4.0 | 0.00 | 0.00 | 0.00 | 37 | 1020.3 |
| 20260906024600 | 76 | 285 | 1.0 | 4.0 | 0.00 | 0.00 | 0.00 | 35 | 1020.1 |
| 20260906023107 | 77 | 235 | 2.0 | 7.0 | 0.00 | 0.00 | 0.00 | 37 | 1020.1 |
| 20260906021551 | 78 | 188 | 2.0 | 5.0 | 0.00 | 0.00 | 0.00 | 34 | 1019.7 |
| 20260906014554 | 79 | 179 | 2.0 | 5.0 | 0.00 | 0.00 | 0.00 | 34 | 1019.5 |
| 20260906013053 | 80 | 163 | 2.0 | 6.0 | 0.00 | 0.00 | 0.00 | 35 | 1019.3 |
| 20260906011558 | 81 | 148 | 1.0 | 3.0 | 0.00 | 0.00 | 0.00 | 35 | 1019.2 |
| 20260906010054 | 82 | 135 | 2.0 | 7.0 | 0.00 | 0.00 | 0.00 | 33 | 1019.2 |
| 20260906004557 | 84 | 116 | 4.0 | 7.0 | 0.00 | 0.00 | 0.00 | 31 | 1019.3 |
| 20260906003054 | 84 | 128 | 5.0 | 8.0 | 0.00 | 0.00 | 0.00 | 30 | 1019.3 |
| 20260906001553 | 85 | 113 | 5.0 | 8.0 | 0.00 | 0.00 | 0.00 | 29 | 1019.2 |
| 20260906000101 | 87 | 149 | 5.0 | 10.0 | 0.00 | 0.00 | 0.00 | 28 | 1019.1 |
| 20260905234547 | 87 | 232 | 1.0 | 8.0 | 0.00 | 0.00 | 0.00 | 25 | 1019.2 |
| 20260905233101 | 88 | 178 | 2.0 | 4.0 | 0.00 | 0.00 | 0.00 | 26 | 1019.1 |
| 20260905231610 | 87 | 0 | 0.0 | 7.0 | 0.00 | 0.00 | 0.00 | 24 | 1018.9 |
| 20260905230058 | 87 | 94 | 3.0 | 7.0 | 0.00 | 0.00 | 0.00 | 25 | 1019.2 |
| 20260905224556 | 86 | 152 | 3.0 | 7.0 | 0.00 | 0.00 | 0.00 | 26 | 1019.0 |
| 20260905223056 | 86 | 115 | 2.0 | 8.0 | 0.00 | 0.00 | 0.00 | 25 | 1019.1 |
| 20260905221602 | 86 | 117 | 2.0 | 9.0 | 0.00 | 0.00 | 0.00 | 27 | 1019.1 |
| 20260905220104 | 86 | 130 | 6.0 | 9.0 | 0.00 | 0.00 | 0.00 | 25 | 1019.1 |
| 20260905214606 | 88 | 98 | 3.0 | 8.0 | 0.00 | 0.00 | 0.00 | 24 | 1019.4 |